Meath Environmental Platform

Observations for Trim Market St

Time AQI Temp °C Hum % Pres Pa CO μg/m³ H₂S μg/m³ NO μg/m³ NO₂ μg/m³ O₃ μg/m³ SO₂ μg/m³ PM1 μg/m³ PM2.5 μg/m³ PM10 μg/m³
Tuesday 18 August 2026
08:31 2 20.1 68 55,209 0.14 0 2 5.86 44.78 0 0 1.18 2.44
08:30 2 20.1 69 55,093 0.12 0 1.99 3.83 48.7 0 0 1.17 2.45
08:22 2 19.8 70 54,354 0.15 0 2.25 4.37 41.58 0 0 1.61 3.76
08:21 2 19.8 70 54,266 0.17 0 2.57 5.79 42.49 0 0 1.6 3.13
08:19 2 19.7 70 54,147 0.21 0 3.08 4.66 40.49 0 0 1.6 3.14
08:16 2 19.7 70 53,865 0.24 0 3.48 5.43 34.15 0 0 1.58 5.03
08:12 2 19.6 71 53,219 0.17 0 1.74 4.08 42.84 0 0 1.56 3.18
08:11 2 19.6 71 52,992 0.18 0 1.74 4.36 40.16 0 0 1.07 2.56
08:10 2 19.6 71 52,692 0.18 0 1.7 3.95 47.43 0 0 1.55 3.19
08:09 2 19.6 71 52,353 0.17 0 1.69 3.47 44.23 0 0 1.06 2.58
08:08 2 19.5 72 51,865 0.18 0 1.68 3.3 47.42 0 0 1.05 2.59
08:07 2 19.5 72 51,286 0.18 0 1.73 3.03 39.53 0 0 2 3.83
08:06 2 19.5 72 50,543 0.22 0 1.73 3.11 40.88 0 0 1.51 3.84
08:05 2 19.5 72 49,620 0.18 0 1.73 3.55 41.84 0 0 1.01 2.63
08:04 2 19.4 73 48,563 0.19 0 1.74 3.74 41.86 0 0 1 2.64
08:03 2 19.4 73 47,390 0.18 0 1.78 3.36 46.41 0 0 0.99 3.87
08:02 2 19.4 73 46,011 0.19 0 1.75 3.5 46.24 0 0 0.98 2.66
08:01 2 19.4 73 44,256 0.22 0 1.79 3.99 36.09 0 0 0.97 3.28
08:00 2 19.3 74 42,187 0.21 0 1.8 3.5 45.4 0 0 0.96 2.69
07:59 2 19.3 74 39,860 0.22 0 2 3.78 48.4 0 0 1.43 4.51